Previsão horária em Ploskin

Hoje, 6 Março, Sábado

Tempo Temperatura Precipitação Vento Pressão Humidade
00:00 -5°C° 0 mm 2 m/s 752 mmHg 68%
01:00 -5°C° 0 mm 2 m/s 752 mmHg 66%
02:00 -5°C° 0 mm 2 m/s 752 mmHg 65%
03:00 -5°C° 0 mm 2 m/s 752 mmHg 63%
04:00 -5°C° 0 mm 3 m/s 752 mmHg 62%
05:00 -5°C° 0 mm 3 m/s 752 mmHg 61%
06:00 -5°C° 0 mm 3 m/s 752 mmHg 66%
07:00 -5°C° 0 mm 3 m/s 753 mmHg 71%
08:00 -7°C° 0 mm 4 m/s 753 mmHg 76%
09:00 -5°C° 0 mm 4 m/s 753 mmHg 67%
10:00 -4°C° 0 mm 4 m/s 754 mmHg 58%
11:00 -4°C° 0 mm 5 m/s 754 mmHg 49%
12:00 -4°C° 0 mm 5 m/s 754 mmHg 47%
13:00 -2°C° 0 mm 4 m/s 754 mmHg 46%
14:00 -2°C° 0 mm 4 m/s 754 mmHg 44%
15:00 -2°C° 0 mm 4 m/s 754 mmHg 47%
16:00 -2°C° 0 mm 4 m/s 753 mmHg 50%
17:00 -2°C° 0 mm 3 m/s 753 mmHg 53%
18:00 -2°C° 0 mm 3 m/s 753 mmHg 58%
19:00 -4°C° 0 mm 3 m/s 753 mmHg 62%
20:00 -4°C° 0 mm 3 m/s 753 mmHg 66%
21:00 -4°C° 0 mm 4 m/s 752 mmHg 65%
22:00 -4°C° 0 mm 4 m/s 752 mmHg 64%
23:00 -5°C° 0 mm 5 m/s 751 mmHg 63%

Amanhã, 7 Março, Domingo

Tempo Temperatura Precipitação Vento Pressão Humidade
00:00 -5°C° 0 mm 5 m/s 750 mmHg 63%
01:00 -4°C° 0 mm 6 m/s 750 mmHg 63%
02:00 -4°C° 0 mm 7 m/s 749 mmHg 63%
03:00 -4°C° 0 mm 7 m/s 748 mmHg 68%
04:00 -4°C° 0 mm 7 m/s 747 mmHg 73%
05:00 -5°C° 0 mm 8 m/s 746 mmHg 77%
06:00 -5°C° 0 mm 8 m/s 745 mmHg 79%
07:00 -4°C° 0 mm 9 m/s 745 mmHg 81%
08:00 -4°C° 0 mm 9 m/s 744 mmHg 82%
09:00 -4°C° 0 mm 9 m/s 744 mmHg 79%
10:00 -3°C° 0 mm 9 m/s 744 mmHg 76%
11:00 -3°C° 0 mm 9 m/s 743 mmHg 73%
12:00 -1°C° 0 mm 9 m/s 743 mmHg 73%
13:00 -1°C° 0 mm 9 m/s 743 mmHg 72%
14:00 -1°C° 0 mm 9 m/s 743 mmHg 72%
15:00 -1°C° 0.1 mm 9 m/s 743 mmHg 74%
16:00 -1°C° 0.1 mm 9 m/s 742 mmHg 76%
17:00 -3°C° 0.1 mm 9 m/s 742 mmHg 79%
18:00 -2°C° 0.5 mm 8 m/s 742 mmHg 83%
19:00 -3°C° 0.5 mm 7 m/s 742 mmHg 87%
20:00 -3°C° 0.5 mm 7 m/s 742 mmHg 91%
21:00 -4°C° 0.2 mm 6 m/s 743 mmHg 85%
22:00 -4°C° 0.2 mm 5 m/s 743 mmHg 78%
23:00 -5°C° 0.2 mm 5 m/s 743 mmHg 71%

Depois de amanhã, 8 Março, Segunda-feira

Tempo Temperatura Precipitação Vento Pressão Humidade
00:00 -6°C° 0 mm 5 m/s 743 mmHg 72%
01:00 -5°C° 0 mm 4 m/s 743 mmHg 74%
02:00 -7°C° 0 mm 4 m/s 744 mmHg 75%
03:00 -7°C° 0 mm 4 m/s 744 mmHg 76%
04:00 -7°C° 0 mm 4 m/s 744 mmHg 78%
05:00 -7°C° 0 mm 4 m/s 744 mmHg 79%
06:00 -7°C° 0 mm 4 m/s 744 mmHg 80%
07:00 -7°C° 0 mm 4 m/s 745 mmHg 80%
08:00 -7°C° 0 mm 4 m/s 745 mmHg 81%
09:00 -5°C° 0.1 mm 4 m/s 745 mmHg 76%
10:00 -4°C° 0.1 mm 4 m/s 745 mmHg 71%
11:00 -3°C° 0.1 mm 4 m/s 746 mmHg 66%
12:00 -4°C° 0.1 mm 5 m/s 746 mmHg 64%
13:00 -4°C° 0.1 mm 5 m/s 746 mmHg 62%
14:00 -2°C° 0.1 mm 5 m/s 746 mmHg 60%
15:00 -3°C° 0.1 mm 4 m/s 746 mmHg 61%
16:00 -3°C° 0.1 mm 4 m/s 746 mmHg 63%
17:00 -3°C° 0.1 mm 4 m/s 746 mmHg 64%
18:00 -4°C° 0 mm 4 m/s 747 mmHg 68%
19:00 -5°C° 0 mm 3 m/s 747 mmHg 73%
20:00 -5°C° 0 mm 3 m/s 748 mmHg 77%
21:00 -6°C° 0 mm 3 m/s 748 mmHg 77%
22:00 -6°C° 0 mm 3 m/s 749 mmHg 76%
23:00 -7°C° 0 mm 3 m/s 749 mmHg 76%

9 Março, Terça-feira

Tempo Temperatura Precipitação Vento Pressão Humidade
00:00 -7°C° 0 mm 3 m/s 750 mmHg 76%
01:00 -7°C° 0 mm 3 m/s 750 mmHg 77%
02:00 -8°C° 0 mm 3 m/s 750 mmHg 77%
03:00 -7°C° 0 mm 2 m/s 751 mmHg 78%
04:00 -7°C° 0 mm 2 m/s 751 mmHg 80%
05:00 -8°C° 0 mm 2 m/s 751 mmHg 81%
06:00 -8°C° 0 mm 2 m/s 752 mmHg 79%
07:00 -8°C° 0 mm 2 m/s 752 mmHg 77%
08:00 -8°C° 0 mm 2 m/s 752 mmHg 75%
09:00 -6°C° 0 mm 1 m/s 752 mmHg 67%
10:00 -4°C° 0 mm 1 m/s 753 mmHg 58%
11:00 -3°C° 0 mm 1 m/s 753 mmHg 50%
12:00 -2°C° 0 mm 1 m/s 753 mmHg 47%
13:00 -2°C° 0 mm 1 m/s 753 mmHg 44%
14:00 -1°C° 0 mm 1 m/s 753 mmHg 41%
15:00 -1°C° 0 mm 1 m/s 752 mmHg 42%
16:00 -1°C° 0 mm 1 m/s 752 mmHg 43%
17:00 -1°C° 0 mm 1 m/s 752 mmHg 45%
18:00 -2°C° 0 mm 1 m/s 752 mmHg 48%
19:00 -2°C° 0 mm 1 m/s 752 mmHg 52%
20:00 -3°C° 0 mm 1 m/s 752 mmHg 56%
21:00 -3°C° 0 mm 1 m/s 752 mmHg 57%
22:00 -5°C° 0 mm 2 m/s 752 mmHg 58%
23:00 -5°C° 0 mm 2 m/s 752 mmHg 60%

10 Março, Quarta-feira

Tempo Temperatura Precipitação Vento Pressão Humidade
00:00 -5°C° 0 mm 2 m/s 751 mmHg 61%
01:00 -5°C° 0 mm 2 m/s 751 mmHg 62%
02:00 -5°C° 0 mm 2 m/s 751 mmHg 63%
03:00 -5°C° 0 mm 2 m/s 751 mmHg 63%
04:00 -5°C° 0 mm 2 m/s 750 mmHg 63%
05:00 -5°C° 0 mm 2 m/s 750 mmHg 63%
06:00 -5°C° 0 mm 2 m/s 750 mmHg 63%
07:00 -5°C° 0 mm 2 m/s 750 mmHg 63%
08:00 -5°C° 0 mm 2 m/s 750 mmHg 63%
09:00 -3°C° 0 mm 2 m/s 750 mmHg 59%
10:00 -2°C° 0 mm 2 m/s 750 mmHg 55%
11:00 -1°C° 0 mm 2 m/s 750 mmHg 51%
12:00 +1°C° 0 mm 2 m/s 750 mmHg 49%
13:00 +2°C° 0 mm 2 m/s 750 mmHg 47%
14:00 +2°C° 0 mm 2 m/s 750 mmHg 46%
15:00 +2°C° 0 mm 2 m/s 750 mmHg 50%
16:00 +2°C° 0 mm 1 m/s 750 mmHg 54%
17:00 +2°C° 0 mm 1 m/s 750 mmHg 59%
18:00 +1°C° 0 mm 1 m/s 750 mmHg 63%
19:00 0°C° 0 mm 1 m/s 750 mmHg 67%
20:00 0°C° 0 mm 1 m/s 750 mmHg 71%
21:00 -1°C° 0 mm 1 m/s 750 mmHg 71%
22:00 -1°C° 0 mm 1 m/s 750 mmHg 72%
23:00 -1°C° 0 mm 1 m/s 750 mmHg 73%

11 Março, Quinta-feira

Tempo Temperatura Precipitação Vento Pressão Humidade
00:00 -1°C° 0 mm 1 m/s 750 mmHg 74%
01:00 -1°C° 0 mm 1 m/s 750 mmHg 75%
02:00 -3°C° 0 mm 2 m/s 750 mmHg 76%
03:00 -3°C° 0 mm 2 m/s 750 mmHg 79%
04:00 -3°C° 0 mm 2 m/s 750 mmHg 81%
05:00 -3°C° 0 mm 2 m/s 749 mmHg 83%
06:00 -3°C° 0 mm 2 m/s 749 mmHg 84%
07:00 -2°C° 0 mm 2 m/s 749 mmHg 84%
08:00 -2°C° 0 mm 3 m/s 749 mmHg 85%
09:00 -1°C° 0 mm 3 m/s 749 mmHg 82%
10:00 -1°C° 0 mm 4 m/s 748 mmHg 79%
11:00 0°C° 0 mm 5 m/s 748 mmHg 76%
12:00 +1°C° 0 mm 5 m/s 747 mmHg 75%
13:00 +1°C° 0 mm 5 m/s 746 mmHg 75%
14:00 +1°C° 0 mm 6 m/s 746 mmHg 75%
15:00 +1°C° 0.3 mm 6 m/s 745 mmHg 81%
16:00 +1°C° 0.3 mm 6 m/s 744 mmHg 88%
17:00 -1°C° 0.3 mm 6 m/s 743 mmHg 95%
18:00 +1°C° 0.7 mm 6 m/s 743 mmHg 95%
19:00 +1°C° 0.7 mm 6 m/s 742 mmHg 94%
20:00 +1°C° 0.7 mm 6 m/s 742 mmHg 94%
21:00 +2°C° 0.6 mm 6 m/s 741 mmHg 94%
22:00 +2°C° 0.6 mm 6 m/s 741 mmHg 94%
23:00 +2°C° 0.6 mm 5 m/s 741 mmHg 94%
Mostrar mais

Necessitamos do seu Consentimento

A Meteoprog e os seus Fornecedores de Serviços podem armazenar e aceder a dados pessoais como cookies, identificadores do dispositivo ou outras tecnologias semelhantes existentes no seu dispositivo e processar estes dados para personalizar conteúdos e anúncios, assim como funcionalidades nas redes sociais e análise de tráfego.

  • Armazenar e/ou aceder a informações no seu dispositivo

    Os cookies, identificadores do dispositivo ou outras informações podem ser armazenados ou acedidos no seu dispositivo, para os fins acima indicados.

  • Anúncios e conteúdos personalizados, medição de anúncios e conteúdos, dados sobre o público-alvo e desenvolvimento de produtos

    Os anúncios e os conteúdos podem ser personalizados com base num perfil. Podem ser adicionados dados adicionais para uma maior personalização dos anúncios e dos conteúdos. A eficácia dos anúncios e dos conteúdos pode ser medida. Podem ser obtidas informações sobre o público que visualizou os anúncios e os conteúdos. Estes dados podem ser usados para desenvolver ou melhorar sistemas, softwares ou a experiência do utilizador.

Ao clicar em "Eu concordo”, permitirá o uso de cookies, identificadores do dispositivo e web beacons mencionados ou outras tecnologias semelhantes. As configurações do navegador do seu dispositivo podem ser alteradas.

Para certos fins, podem ser invocados interesses legítimos ao invés de consentimento. Pode ler mais informação sobre este assunto na nossa Política de Privacidade e Cookies.